Weather reports worldwide

Advertisment
Firenze/Peretola, Italy (16170): temperature & dewpoint: 28.05.2020 22:00:00 - 03.06.2020 22:00:00 (CEST)Firenze/Peretola, Italy (16170): wind speed: 28.05.2020 22:00:00 - 03.06.2020 22:00:00 (CEST)Firenze/Peretola, Italy (16170): wind direction: 28.05.2020 22:00:00 - 03.06.2020 22:00:00 (CEST)Firenze/Peretola, Italy (16170): reduced air pressure: 28.05.2020 22:00:00 - 03.06.2020 22:00:00 (CEST)Firenze/Peretola, Italy (16170): visibility: 28.05.2020 22:00:00 - 03.06.2020 22:00:00 (CEST)Firenze/Peretola, Italy (16170): precipitation: 28.05.2020 22:00:00 - 03.06.2020 22:00:00 (CEST)
Date & Time tt [°C] td [°C] ff [km/h] ff [kn] dd ppp [hPa] vv [km] rr [mm]
03.06.2020 22:00:00 - - - - - - - -
03.06.2020 21:00:00 22,0 13,0 11 6 W - 10 -
03.06.2020 20:00:00 22,4 13,3 15 8 WSW 1008,1 10 -
03.06.2020 19:00:00 24,0 11,0 18 10 WSW - 10 -
03.06.2020 18:00:00 25,0 12,0 24 13 SW - 10 -
03.06.2020 17:00:00 25,3 12,0 18 10 WSW 1008,6 10 0,0
03.06.2020 16:00:00 26,0 14,0 24 13 SW - 10 -
03.06.2020 15:00:00 26,0 14,0 24 13 WSW - 10 -
03.06.2020 14:00:00 24,9 13,1 21 11 SW 1010,0 10 -
03.06.2020 13:00:00 24,0 16,0 15 8 WSW - 10 -
03.06.2020 12:00:00 23,0 15,0 5 3 - - 10 -
03.06.2020 11:00:00 22,6 15,3 9 5 W 1011,4 10 0,0
03.06.2020 10:00:00 21,0 15,0 5 3 - - 10 -
03.06.2020 09:00:00 20,0 16,0 2 1 - - 10 -
03.06.2020 08:00:00 18,8 15,7 2 1 - 1011,9 10 -
03.06.2020 07:00:00 17,0 15,0 4 2 NW - 10 -
03.06.2020 06:00:00 17,0 15,0 5 3 ESE - 10 -
03.06.2020 05:00:00 16,6 15,0 5 3 ENE 1011,5 10 0,0
03.06.2020 04:00:00 - - - - - - - -
03.06.2020 03:00:00 16,0 14,0 9 5 ENE - 10 -
03.06.2020 02:00:00 18,2 15,0 11 6 E 1012,4 10 -
03.06.2020 01:00:00 18,0 14,0 5 3 E - 10 -
03.06.2020 00:00:00 19,0 16,0 8 4 S - 10 -
02.06.2020 23:00:00 19,7 14,5 9 5 SSW 1012,9 10 0,0
02.06.2020 22:00:00 21,0 11,0 5 3 SSW - 10 -
02.06.2020 21:00:00 21,0 11,0 8 4 NW - 10 -
02.06.2020 20:00:00 21,7 11,1 9 5 WNW 1011,6 10 -
02.06.2020 19:00:00 24,0 10,0 11 6 W - 10 -
02.06.2020 18:00:00 27,0 8,0 21 11 W - 10 -
02.06.2020 17:00:00 27,0 9,0 18 10 W - 10 -
02.06.2020 16:00:00 28,0 9,0 11 6 SW - 10 -
02.06.2020 15:00:00 28,0 8,0 13 7 SW - 10 -
02.06.2020 14:00:00 27,9 8,5 9 5 - 1013,5 10 -
02.06.2020 13:00:00 27,0 8,0 8 4 SW - 10 -
02.06.2020 12:00:00 26,0 6,0 5 3 - - 10 -
02.06.2020 11:00:00 25,1 8,8 4 2 - 1015,2 10 0,0
02.06.2020 10:00:00 21,0 10,0 4 2 - - 10 -
02.06.2020 09:00:00 19,0 10,0 2 1 - - 10 -
02.06.2020 08:00:00 17,0 9,7 2 1 - 1015,8 10 -
02.06.2020 07:00:00 14,0 11,0 2 1 - - 10 -
02.06.2020 06:00:00 12,0 9,0 2 1 - - 10 -
02.06.2020 05:00:00 11,3 8,7 2 1 - 1016,2 10 0,0
02.06.2020 04:00:00 12,0 9,0 2 1 - - 10 -
02.06.2020 03:00:00 13,0 10,0 2 1 - - 10 -
02.06.2020 02:00:00 14,9 9,8 5 3 SSW 1017,2 10 -
02.06.2020 01:00:00 17,0 10,0 4 2 - - 10 -
02.06.2020 00:00:00 19,0 8,0 8 4 S - 10 -
01.06.2020 23:00:00 17,6 8,2 8 4 E 1016,6 10 0,0
01.06.2020 22:00:00 21,0 7,0 15 8 NE - 10 -
01.06.2020 21:00:00 21,0 8,0 11 6 NE - 10 -
01.06.2020 20:00:00 23,9 8,7 13 7 NE 1015,6 10 -
01.06.2020 19:00:00 26,0 9,0 16 9 NE - 10 -
01.06.2020 18:00:00 26,0 10,0 13 7 NE - 10 -
01.06.2020 17:00:00 26,1 9,1 11 6 NE 1016,0 10 0,0
01.06.2020 16:00:00 26,0 9,0 13 7 - - 10 -
01.06.2020 15:00:00 26,0 9,0 15 8 - - 10 -
01.06.2020 14:00:00 25,5 9,5 13 7 NE 1016,7 10 -
01.06.2020 13:00:00 25,0 10,0 9 5 N - 10 -
01.06.2020 12:00:00 24,0 9,0 13 7 N - 10 -
01.06.2020 11:00:00 23,9 9,4 15 8 N 1017,2 10 0,0
01.06.2020 10:00:00 20,0 12,0 5 3 - - 10 -
01.06.2020 09:00:00 17,0 12,0 4 2 - - 10 -
01.06.2020 08:00:00 16,0 11,8 2 1 - 1017,6 10 -
01.06.2020 07:00:00 13,0 11,0 9 5 ENE - 10 -
01.06.2020 06:00:00 11,0 10,0 5 3 E - 10 -
01.06.2020 05:00:00 11,8 10,6 2 1 - 1017,1 10 0,0
01.06.2020 04:00:00 12,0 10,0 5 3 ENE - 10 -
01.06.2020 03:00:00 13,0 12,0 2 1 - - 10 -
01.06.2020 02:00:00 13,5 10,6 5 3 E 1016,8 10 -
01.06.2020 01:00:00 14,0 11,0 8 4 E - 10 -
01.06.2020 00:00:00 14,0 11,0 8 4 E - 10 -
31.05.2020 23:00:00 15,0 10,8 4 2 SSW 1015,9 10 0,0
31.05.2020 22:00:00 18,0 10,0 4 2 - - 10 -
31.05.2020 21:00:00 19,0 11,0 9 5 W - 10 -
31.05.2020 20:00:00 21,3 11,0 11 6 W 1014,1 10 -
31.05.2020 19:00:00 23,0 10,0 11 6 WSW - 10 -
31.05.2020 18:00:00 23,0 10,0 9 5 NW - 10 -
31.05.2020 17:00:00 22,7 9,3 8 4 WNW 1014,6 10 0,0
31.05.2020 16:00:00 23,0 9,0 9 5 WNW - 10 -
31.05.2020 15:00:00 24,0 8,0 5 3 - - 10 -
31.05.2020 14:00:00 22,4 6,6 5 3 - 1015,5 10 -
31.05.2020 13:00:00 21,0 9,0 8 4 SE - 10 -
31.05.2020 12:00:00 19,0 10,0 4 2 - - 10 -
31.05.2020 11:00:00 17,0 10,5 4 2 - 1016,8 10 0,0
31.05.2020 10:00:00 15,0 11,0 2 1 WNW - 10 -
31.05.2020 09:00:00 15,0 12,0 5 3 NW - 10 -
31.05.2020 08:00:00 14,5 11,0 2 1 - 1016,5 10 -
31.05.2020 07:00:00 12,0 11,0 2 1 - - 10 -
31.05.2020 06:00:00 11,0 9,0 5 3 SE - 10 -
31.05.2020 05:00:00 11,9 9,6 2 1 - 1016,0 10 0,0
31.05.2020 04:00:00 12,0 9,0 2 1 - - 10 -
31.05.2020 03:00:00 13,0 10,0 4 2 - - 10 -
31.05.2020 02:00:00 13,6 9,6 5 3 ENE 1016,4 10 -
31.05.2020 01:00:00 14,0 10,0 5 3 SSW - 10 -
31.05.2020 00:00:00 16,0 9,0 5 3 - - 10 -
30.05.2020 23:00:00 16,4 9,1 4 2 - 1016,0 10 0,0
30.05.2020 22:00:00 18,0 8,0 9 5 NNE - 10 -
30.05.2020 21:00:00 20,0 8,0 11 6 - - 10 -
30.05.2020 20:00:00 21,1 9,3 18 10 ENE 1014,2 10 -
30.05.2020 19:00:00 22,0 8,0 21 11 ENE - 10 -
30.05.2020 18:00:00 22,0 10,0 21 11 ENE - 10 -
30.05.2020 17:00:00 22,3 9,5 22 12 NE 1014,1 10 0,0
30.05.2020 16:00:00 24,0 9,0 11 6 NNE - 10 -
30.05.2020 15:00:00 24,0 8,0 13 7 NNE - 10 -
30.05.2020 14:00:00 23,0 8,9 9 5 NNE 1015,0 10 -
30.05.2020 13:00:00 23,0 10,0 15 8 NE - 10 -
30.05.2020 12:00:00 22,0 10,0 16 9 NE - 10 -
30.05.2020 11:00:00 19,9 9,2 13 7 NE 1016,6 10 0,0
30.05.2020 10:00:00 19,0 9,0 13 7 N - 10 -
30.05.2020 09:00:00 19,0 8,0 8 4 NNW - 10 -
30.05.2020 08:00:00 16,2 9,3 5 3 NNE 1017,1 10 -
30.05.2020 07:00:00 - - - - - - 10 -
30.05.2020 06:00:00 - - - - - - 10 -
30.05.2020 05:00:00 14,1 8,0 4 2 N 1017,7 10 0,0
30.05.2020 04:00:00 - - - - - - - -
30.05.2020 03:00:00 - - - - - - 10 -
30.05.2020 02:00:00 13,5 7,5 8 4 NE 1018,7 10 -
30.05.2020 01:00:00 - - - - - - 10 -
30.05.2020 00:00:00 - - - - - - 10 -
29.05.2020 23:00:00 13,6 7,6 5 3 NE 1018,9 10 0,0
29.05.2020 22:00:00 14,0 7,0 8 4 N - 10 -
29.05.2020 21:00:00 16,0 7,0 13 7 NNE - 10 -
29.05.2020 20:00:00 16,5 7,3 13 7 NE 1018,3 10 -
29.05.2020 19:00:00 18,0 7,0 9 5 NE - 10 -
29.05.2020 18:00:00 18,0 6,0 18 10 NE - 10 -
29.05.2020 17:00:00 19,5 6,5 18 10 NE 1019,0 10 0,0
29.05.2020 16:00:00 20,0 7,0 22 12 NE - 10 -
29.05.2020 15:00:00 19,0 8,0 21 11 ENE - 10 -
29.05.2020 14:00:00 17,4 7,4 29 16 NE 1020,6 10 -
29.05.2020 13:00:00 18,0 8,0 26 14 NE - 10 -
29.05.2020 12:00:00 20,0 9,0 28 15 NE - 10 -
29.05.2020 11:00:00 18,1 8,5 16 9 NE 1020,9 10 0,0
29.05.2020 10:00:00 17,0 10,0 8 4 - - 10 -
29.05.2020 09:00:00 14,0 9,0 15 8 ESE - 10 -
29.05.2020 08:00:00 13,5 9,2 11 6 - 1020,9 10 -
29.05.2020 07:00:00 14,0 11,0 8 4 S - 8 -
29.05.2020 06:00:00 14,0 13,0 5 3 E - 10 -
29.05.2020 05:00:00 14,8 12,8 24 13 W 1020,1 10 0,0
29.05.2020 04:00:00 15,0 12,0 31 17 NNE - 8 -
29.05.2020 03:00:00 15,0 10,0 4 2 - - 10 -
29.05.2020 02:00:00 14,4 9,5 8 4 E 1019,7 10 -
29.05.2020 01:00:00 15,0 9,0 9 5 E - 10 -
29.05.2020 00:00:00 15,0 9,0 9 5 E - 10 -
28.05.2020 23:00:00 15,8 8,9 4 2 - 1020,6 10 0,0
28.05.2020 22:00:00 20,0 8,0 5 3 WSW - 10 -

tt = temperature
td = dewpoint
ff = wind speed
dd = wind direction
ppp = reduced air pressure
vv = visibility
rr = precipitation

Next stations